Home   Weather   Dublin   Past weeks

Flag for Ireland Past Weather in Dublin, Ireland — Yesterday and Last 2 Weeks

Now
50 °F

Passing clouds.


Feels Like: 45 °F
Forecast: 49 / 59 °F
Wind: 14 mph from Southwest

Location: Dublin Airport

Current Time: Sep 29, 2016 at 11:14:38 PM

Latest Report: Sep 29, 2016 at 10:30 PM


Visibility: N/A

Pressure: 29.86 "Hg

Humidity: 88%

Dew Point: 46 °F

Location of DublinLocation

Past Weather in Dublin — Graph

°F

Dublin Temperature Yesterday

Maximum temperature yesterday: 72 °F (at 3:00 PM)
Minimum temperature yesterday: 55 °F (at 12:00 AM)
Average temperature yesterday: 63 °F

High & Low Weather Summary for the Past Weeks

 TemperatureHumidityPressure
High72 °F (Sep 28, 3:00 PM)100% (Sep 14, 10:30 PM)30.30 "Hg (Sep 14, 10:30 PM)
Low43 °F (Sep 20, 10:00 PM)48% (Sep 20, 11:00 AM)29.56 "Hg (Sep 24, 10:30 PM)
Average56 °F78%29.99 "Hg
* Reported Sep 14 10:00 PM — Sep 29 10:00 PM, Dublin, Weather by CustomWeather, © 2016

Note: Actual official high and low records may vary slightly from our data, if they occured in-between our weather recording intervals... More about our weather records

Advertising

Dublin Weather History for the Previous 24 Hours

Scroll right to see more
 ConditionsComfort  
Time TempWeatherWind HumidityBarometerVisibility
10:00 PM
Thu, Sep 29
50 °FPassing clouds.14 mph82%29.86 "HgN/A
9:30 PM52 °FPassing clouds.13 mph77%29.86 "HgN/A
9:00 PM52 °FPassing clouds.13 mph77%29.86 "HgN/A
8:30 PM52 °FPassing clouds.10 mph82%29.86 "HgN/A
8:00 PM52 °FPassing clouds.13 mph82%29.86 "HgN/A
7:30 PM52 °FPassing clouds.15 mph82%29.86 "HgN/A
7:00 PM52 °FScattered clouds.17 mph82%29.86 "HgN/A
6:30 PM54 °FPassing clouds.18 mph77%29.86 "HgN/A
6:00 PM55 °FScattered clouds.22 mph72%29.86 "HgN/A
5:30 PM55 °FPassing clouds.24 mph72%29.83 "HgN/A
5:00 PM55 °FPassing clouds.24 mph67%29.83 "HgN/A
4:30 PM55 °FSprinkles. Passing clouds.28 mph67%29.83 "HgN/A
4:00 PM59 °FPassing clouds.30 mph51%29.83 "HgN/A
3:30 PM59 °FPassing clouds.30 mph51%29.83 "HgN/A
3:00 PM59 °FPassing clouds.29 mph55%29.83 "HgN/A
2:30 PM59 °FPassing clouds.28 mph63%29.83 "HgN/A
2:00 PM55 °FScattered clouds.25 mph77%29.83 "HgN/A
1:30 PM59 °FPassing clouds.28 mph59%29.83 "HgN/A
1:00 PM59 °FScattered clouds.29 mph59%29.83 "HgN/A
12:30 PM59 °FPassing clouds.31 mph63%29.83 "HgN/A
12:00 PM57 °FPassing clouds.30 mph63%29.83 "HgN/A
11:30 AM57 °FPassing clouds.28 mph67%29.83 "HgN/A
11:00 AM55 °FPassing clouds.28 mph72%29.83 "HgN/A
10:30 AM55 °FPassing clouds.24 mph72%29.83 "HgN/A
10:00 AM55 °FPassing clouds.25 mph72%29.83 "HgN/A
9:30 AM54 °FPassing clouds.23 mph77%29.83 "HgN/A
9:00 AM54 °FPassing clouds.23 mph77%29.83 "HgN/A
8:30 AM52 °FPassing clouds.21 mph82%29.83 "HgN/A
8:00 AM52 °FPassing clouds.22 mph82%29.83 "HgN/A
7:30 AM54 °FPassing clouds.22 mph77%29.83 "HgN/A
7:00 AM54 °FPartly cloudy.21 mph77%29.80 "HgN/A
6:30 AM54 °FPassing clouds.24 mph82%29.80 "HgN/A
6:00 AM54 °FSprinkles. Passing clouds.24 mph82%29.80 "HgN/A
5:30 AM54 °FPassing clouds.25 mph82%29.80 "HgN/A
5:00 AM54 °FPassing clouds.23 mph82%29.80 "HgN/A
4:30 AM54 °FPassing clouds.22 mph82%29.80 "HgN/A
4:00 AM54 °FPassing clouds.21 mph82%29.80 "HgN/A
3:30 AM54 °FPartly cloudy.16 mph82%29.83 "HgN/A
3:00 AM55 °FPassing clouds.13 mph82%29.86 "HgN/A
2:30 AM55 °FPassing clouds.17 mph82%29.86 "HgN/A
2:00 AM55 °FPassing clouds.18 mph77%29.86 "HgN/A
1:30 AM55 °FPassing clouds.18 mph77%29.86 "HgN/A
1:00 AM55 °FPassing clouds.18 mph82%29.86 "HgN/A
12:30 AM57 °FPassing clouds.20 mph77%29.86 "HgN/A
12:00 AM57 °FPassing clouds.22 mph82%29.86 "HgN/A
11:30 PM
Wed, Sep 28
59 °FPassing clouds.28 mph82%29.86 "HgN/A
11:00 PM61 °FPartly cloudy.26 mph83%29.86 "HgN/A
Weather by CustomWeather, © 2016

See weather overviewHow to use our weather pages